Location: Unspecified
(42.9300°N, 71.1866°W)
Time: 18:06:06
(UTC-05:00)

GENESIS II - Visible Passes

Search period start: 14 February 2016 00:00
Search period end: 24 February 2016 00:00
Orbit: 485 x 557 km, 64.5° (Epoch: 13 February)

Date Brightness Start Highest point End Pass type
(mag) Time Alt. Az. Time Alt. Az. Time Alt. Az.
17 Feb 7.3 05:19:26 10° NNE 05:20:08 10° NNE 05:20:49 10° NE visible
18 Feb 7.2 05:05:09 10° NNE 05:06:12 11° NNE 05:07:15 10° NE visible
19 Feb 7.2 04:50:57 10° NNE 04:52:16 11° NNE 04:53:35 10° NE visible
20 Feb 7.2 04:36:47 10° NNE 04:38:20 12° NE 04:39:52 10° NE visible
21 Feb 7.2 04:22:38 10° N 04:24:22 12° NE 04:26:06 10° ENE visible
21 Feb 4.6 05:58:47 10° NNW 06:02:56 73° NE 06:07:01 10° SE visible
22 Feb 7.2 04:08:31 10° N 04:10:26 13° NE 04:12:19 10° ENE visible
22 Feb 4.5 05:44:47 10° NNW 05:48:57 78° ENE 05:53:01 10° SE visible
23 Feb 7.2 03:54:25 10° N 03:56:28 13° NE 03:58:30 10° ENE visible
23 Feb 4.4 05:30:47 10° NNW 05:34:57 83° NE 05:39:02 10° SE visible
